Location: Ballingbuur
(53.0000°N, 5.7667°E)
Time: 05:30:44
(UTC+00:00)

USA 229 - Pass Details

Date: 29 November 2020
Orbit: 965 x 1247 km, 63.4° (Epoch: 21 January)

Event Time Altitude Azimuth Distance (km) Brightness Sun altitude
Exits shadow 05:42:30 15° 315° (NW) 2,571 5.2 -14.6°
Maximum altitude 05:48:06 47° 24° (NNE) 1,482 4.5 -13.8°
Drops below altitude 10° 05:55:18 10° 97° (E) 3,131 7.5 -12.7°
Sets 05:58:16 0° 103° (ESE) 4,125 8.8 -12.3°
